TimeEST,TemperatureF,Dew PointF,Humidity,Sea Level PressureIn,VisibilityMPH,Wind Direction,Wind SpeedMPH,Gust SpeedMPH,PrecipitationIn,Events,Conditions,WindDirDegrees,DateUTC
12:15 AM,35.1,34.7,99,29.94,5.0,North,-9999.0,-,N/A,Snow,Light Snow,0,2013-02-14 05:15:00
12:35 AM,34.9,34.3,98,29.95,7.0,North,-9999.0,-,N/A,Snow,Light Snow,0,2013-02-14 05:35:00
12:55 AM,35.1,34.0,96,29.95,10.0,North,-9999.0,-,N/A,,Overcast,0,2013-02-14 05:55:00
1:15 AM,35.2,33.6,94,29.96,10.0,North,-9999.0,-,N/A,,Overcast,0,2013-02-14 06:15:00
1:35 AM,35.1,31.8,88,29.96,10.0,North,-9999.0,-,N/A,,Overcast,0,2013-02-14 06:35:00
1:55 AM,34.9,31.1,86,29.98,10.0,North,-9999.0,-,N/A,,Overcast,0,2013-02-14 06:55:00
2:15 AM,34.7,29.8,82,29.98,10.0,North,-9999.0,-,N/A,,Overcast,0,2013-02-14 07:15:00
2:35 AM,34.7,30.6,85,29.99,10.0,North,-9999.0,-,N/A,,Overcast,0,2013-02-14 07:35:00
2:55 AM,34.3,32.0,91,29.99,10.0,North,-9999.0,-,N/A,,Overcast,0,2013-02-14 07:55:00
3:15 AM,34.5,31.3,88,30.00,10.0,North,-9999.0,-,N/A,,Overcast,0,2013-02-14 08:15:00
3:35 AM,34.2,31.8,91,30.00,10.0,North,-9999.0,-,N/A,,Overcast,0,2013-02-14 08:35:00
3:55 AM,34.2,32.0,92,30.01,10.0,North,-9999.0,-,N/A,,Overcast,0,2013-02-14 08:55:00
4:15 AM,33.8,32.2,94,30.01,10.0,North,-9999.0,-,N/A,,Overcast,0,2013-02-14 09:15:00
4:35 AM,33.8,32.4,94,30.01,10.0,North,-9999.0,-,N/A,,Overcast,0,2013-02-14 09:35:00
4:55 AM,33.8,32.5,95,30.01,10.0,North,-9999.0,-,N/A,,Overcast,0,2013-02-14 09:55:00
5:15 AM,34.0,32.7,95,30.01,10.0,North,-9999.0,-,N/A,,Overcast,0,2013-02-14 10:15:00
5:35 AM,34.0,32.2,93,30.01,10.0,North,-9999.0,-,N/A,,Overcast,0,2013-02-14 10:35:00
5:55 AM,33.8,32.9,96,30.01,10.0,North,-9999.0,-,N/A,,Overcast,0,2013-02-14 10:55:00
6:55 AM,33.6,32.9,97,30.02,10.0,North,-9999.0,-,N/A,,Overcast,0,2013-02-14 11:55:00
7:15 AM,33.8,32.9,96,30.02,10.0,North,-9999.0,-,N/A,,Overcast,0,2013-02-14 12:15:00
7:35 AM,33.8,32.9,96,30.02,10.0,North,-9999.0,-,N/A,,Overcast,0,2013-02-14 12:35:00
7:55 AM,33.8,32.9,96,30.02,10.0,North,-9999.0,-,N/A,,Mostly Cloudy,0,2013-02-14 12:55:00
8:15 AM,33.1,32.5,98,30.03,10.0,North,-9999.0,-,N/A,,Scattered Clouds,0,2013-02-14 13:15:00
8:35 AM,34.7,33.1,94,30.03,10.0,North,-9999.0,-,N/A,,Clear,0,2013-02-14 13:35:00
8:55 AM,36.5,32.9,87,30.04,10.0,North,-9999.0,-,N/A,,Clear,0,2013-02-14 13:55:00
9:15 AM,37.0,31.8,81,30.04,10.0,North,-9999.0,-,N/A,,Scattered Clouds,0,2013-02-14 14:15:00
9:35 AM,38.3,32.0,78,30.04,10.0,North,-9999.0,-,N/A,,Mostly Cloudy,0,2013-02-14 14:35:00
10:15 AM,39.2,32.0,75,30.04,10.0,North,-9999.0,-,N/A,,Mostly Cloudy,0,2013-02-14 15:15:00
10:55 AM,41.7,32.0,68,30.04,10.0,North,-9999.0,-,N/A,,Mostly Cloudy,0,2013-02-14 15:55:00
11:15 AM,42.4,32.0,67,30.05,10.0,North,-9999.0,-,N/A,,Scattered Clouds,0,2013-02-14 16:15:00
11:35 AM,43.3,31.3,62,30.05,10.0,North,-9999.0,-,N/A,,Scattered Clouds,0,2013-02-14 16:35:00
11:55 AM,44.8,31.8,60,30.04,10.0,North,-9999.0,-,N/A,,Scattered Clouds,0,2013-02-14 16:55:00
12:15 PM,46.6,32.0,57,30.03,10.0,North,-9999.0,-,N/A,,Scattered Clouds,0,2013-02-14 17:15:00
12:35 PM,45.7,30.0,54,30.01,10.0,North,-9999.0,-,N/A,,Scattered Clouds,0,2013-02-14 17:35:00
12:55 PM,46.4,28.9,51,30.01,10.0,North,-9999.0,-,N/A,,Clear,0,2013-02-14 17:55:00
1:15 PM,47.3,30.4,52,30.00,10.0,North,-9999.0,-,N/A,,Clear,0,2013-02-14 18:15:00
1:35 PM,48.9,30.7,50,29.99,10.0,North,-9999.0,-,N/A,,Clear,0,2013-02-14 18:35:00
1:55 PM,49.8,31.1,49,30.00,10.0,North,-9999.0,-,N/A,,Scattered Clouds,0,2013-02-14 18:55:00
2:15 PM,50.0,30.2,47,29.99,10.0,North,-9999.0,-,N/A,,Clear,0,2013-02-14 19:15:00
2:55 PM,50.7,30.6,46,29.97,10.0,North,-9999.0,-,N/A,,Clear,0,2013-02-14 19:55:00
3:15 PM,50.9,30.4,45,29.96,10.0,North,-9999.0,-,N/A,,Clear,0,2013-02-14 20:15:00
3:35 PM,52.0,31.3,45,29.97,10.0,North,-9999.0,-,N/A,,Scattered Clouds,0,2013-02-14 20:35:00
4:35 PM,49.3,30.9,49,29.98,10.0,North,-9999.0,-,N/A,,Scattered Clouds,0,2013-02-14 21:35:00
4:55 PM,48.6,31.8,52,29.99,10.0,North,-9999.0,-,N/A,,Scattered Clouds,0,2013-02-14 21:55:00
5:15 PM,48.9,32.2,52,29.99,10.0,North,-9999.0,-,N/A,,Mostly Cloudy,0,2013-02-14 22:15:00
5:35 PM,48.2,33.1,56,30.00,10.0,North,-9999.0,-,N/A,,Overcast,0,2013-02-14 22:35:00
5:55 PM,47.7,33.6,58,30.00,10.0,North,-9999.0,-,N/A,,Overcast,0,2013-02-14 22:55:00
6:35 PM,42.8,35.1,74,30.01,10.0,North,-9999.0,-,N/A,,Mostly Cloudy,0,2013-02-14 23:35:00
6:55 PM,43.2,35.1,73,30.01,10.0,North,-9999.0,-,N/A,,Overcast,0,2013-02-14 23:55:00
7:15 PM,45.7,34.9,66,30.02,10.0,North,-9999.0,-,N/A,,Overcast,0,2013-02-15 00:15:00
7:35 PM,44.8,34.7,68,30.03,10.0,North,-9999.0,-,N/A,,Overcast,0,2013-02-15 00:35:00
7:55 PM,43.3,35.6,74,30.03,10.0,North,-9999.0,-,N/A,,Mostly Cloudy,0,2013-02-15 00:55:00
8:15 PM,40.3,34.9,81,30.03,10.0,North,-9999.0,-,N/A,,Scattered Clouds,0,2013-02-15 01:15:00
8:35 PM,38.7,34.2,84,30.03,10.0,North,-9999.0,-,N/A,,Clear,0,2013-02-15 01:35:00
8:55 PM,37.8,34.2,87,30.03,10.0,North,-9999.0,-,N/A,,Scattered Clouds,0,2013-02-15 01:55:00
9:15 PM,36.5,33.8,90,30.03,10.0,North,-9999.0,-,N/A,,Scattered Clouds,0,2013-02-15 02:15:00
9:35 PM,35.6,33.3,91,30.03,10.0,North,-9999.0,-,N/A,,Clear,0,2013-02-15 02:35:00
9:55 PM,34.7,32.9,93,30.03,10.0,North,-9999.0,-,N/A,,Clear,0,2013-02-15 02:55:00
10:15 PM,33.8,32.4,94,30.03,10.0,North,-9999.0,-,N/A,,Clear,0,2013-02-15 03:15:00
10:55 PM,32.7,32.0,97,30.03,10.0,North,-9999.0,-,N/A,,Clear,0,2013-02-15 03:55:00
11:15 PM,32.5,32.0,98,30.03,10.0,North,-9999.0,-,N/A,,Scattered Clouds,0,2013-02-15 04:15:00
11:35 PM,32.2,32.0,99,30.03,10.0,North,-9999.0,-,N/A,,Scattered Clouds,0,2013-02-15 04:35:00
11:55 PM,32.0,32.0,100,30.03,10.0,North,-9999.0,-,N/A,,Scattered Clouds,0,2013-02-15 04:55:00